QPF
0.00 0.00 0.00 0.00 0.01 0.01 0.01 0.01 0.02 0.02 0.02 0.02 0.01 0.01 0.01 0.02 0.02 0.03 0.03 0.04 0.05 0.06 0.05 0.05 0.05 0.05 0.05 0.06 0.05 0.05 0.04 0.04 0.04 0.06 0.08 0.08 0.08 0.09 0.09 0.08 0.08 0.07 0.06 0.06
0.00 0.00 0.00 0.00 0.00 0.00 0.01 0.01 0.01 0.01 0.02 0.02 0.02 0.01 0.01 0.01 0.02 0.02 0.03 0.04 0.05 0.06 0.05 0.04 0.04 0.04 0.04 0.05 0.05 0.05 0.04 0.04 0.05 0.06 0.09 0.08 0.06 0.07 0.08 0.09 0.08 0.05 0.04 0.04
0.01 0.00 0.01 0.00 0.00 0.01 0.01 0.02 0.02 0.02 0.02 0.02 0.01 0.02 0.02 0.01 0.01 0.02 0.03 0.04 0.05 0.05 0.05 0.04 0.04 0.03 0.03 0.04 0.05 0.05 0.04 0.05 0.05 0.07 0.10 0.10 0.08 0.08 0.08 0.08 0.06 0.06 0.06 0.06
0.02 0.01 0.02 0.00 0.00 0.00 0.01 0.01 0.02 0.03 0.02 0.02 0.01 0.01 0.01 0.01 0.01 0.02 0.03 0.04 0.04 0.04 0.04 0.04 0.04 0.03 0.04 0.04 0.05 0.04 0.05 0.06 0.06 0.07 0.08 0.10 0.10 0.09 0.07 0.06 0.06 0.06 0.05 0.06
0.04 0.02 0.01 0.00 0.00 0.00 0.00 0.00 0.01 0.01 0.01 0.01 0.01 0.01 0.01 0.01 0.02 0.02 0.02 0.03 0.03 0.03 0.03 0.04 0.04 0.03 0.03 0.03 0.04 0.04 0.06 0.07 0.07 0.06 0.06 0.08 0.10 0.10 0.09 0.07 0.06 0.05 0.05 0.04
0.06 0.03 0.01 0.00 0.00 0.00 0.00 0.00 0.00 0.00 0.00 0.00 0.00 0.00 0.01 0.01 0.01 0.01 0.02 0.02 0.02 0.02 0.02 0.03 0.03 0.03 0.03 0.03 0.03 0.04 0.05 0.07 0.07 0.06 0.05 0.06 0.08 0.09 0.08 0.07 0.06 0.05 0.05 0.04
0.06 0.04 0.01 0.00 0.00 0.00 0.00 0.00 0.00 0.00 0.00 0.00 0.00 0.00 0.00 0.01 0.00 0.01 0.01 0.01 0.01 0.02 0.03 0.03 0.03 0.03 0.03 0.03 0.04 0.04 0.04 0.06 0.06 0.07 0.07 0.07 0.07 0.06 0.06 0.06 0.06 0.04 0.04 0.04
0.03 0.04 0.01 0.00 0.00 0.00 0.00 0.00 0.00 0.00 0.00 0.00 0.00 0.00 0.00 0.00 0.00 0.00 0.01 0.01 0.01 0.02 0.03 0.03 0.02 0.02 0.02 0.03 0.04 0.03 0.03 0.04 0.06 0.07 0.07 0.07 0.06 0.05 0.05 0.06 0.06 0.05 0.04 0.04
0.01 0.01 0.00 0.00 0.00 0.00 0.00 0.00 0.00 0.00 0.00 0.00 0.00 0.00 0.00 0.00 0.00 0.00 0.00 0.01 0.01 0.01 0.03 0.03 0.02 0.02 0.02 0.03 0.03 0.03 0.03 0.04 0.05 0.06 0.07 0.07 0.07 0.06 0.06 0.06 0.07 0.07 0.06 0.07
0.01 0.00 0.00 0.00 0.00 0.00 0.00 0.00 0.00 0.00 0.00 0.00 0.00 0.00 0.00 0.00 0.00 0.00 0.00 0.01 0.01 0.01 0.02 0.03 0.02 0.02 0.02 0.02 0.02 0.02 0.02 0.03 0.04 0.04 0.05 0.05 0.05 0.06 0.07 0.07 0.07 0.07 0.07 0.07
0.02 0.01 0.01 0.00 0.00 0.00 0.00 0.00 0.00 0.00 0.00 0.00 0.00 0.00 0.00 0.00 0.00 0.00 0.00 0.01 0.01 0.01 0.01 0.02 0.02 0.02 0.02 0.01 0.01 0.01 0.01 0.02 0.03 0.03 0.04 0.04 0.05 0.05 0.06 0.07 0.07 0.07 0.07 0.07
0.03 0.01 0.01 0.02 0.01 0.01 0.01 0.01 0.00 0.00 0.00 0.00 0.00 0.00 0.00 0.00 0.00 0.01 0.00 0.01 0.01 0.01 0.01 0.01 0.02 0.02 0.02 0.02 0.01 0.01 0.01 0.02 0.02 0.03 0.03 0.04 0.05 0.04 0.05 0.06 0.06 0.06 0.07 0.07
0.03 0.02 0.02 0.02 0.01 0.01 0.01 0.01 0.00 0.00 0.00 0.00 0.00 0.00 0.00 0.00 0.01 0.00 0.00 0.01 0.01 0.01 0.01 0.01 0.01 0.02 0.02 0.02 0.02 0.01 0.01 0.02 0.03 0.03 0.03 0.03 0.04 0.04 0.04 0.04 0.05 0.06 0.07 0.07
0.02 0.02 0.02 0.01 0.01 0.00 0.00 0.00 0.00 0.00 0.00 0.00 0.00 0.00 0.00 0.00 0.00 0.00 0.00 0.01 0.01 0.01 0.01 0.01 0.01 0.01 0.01 0.01 0.01 0.02 0.01 0.02 0.03 0.03 0.03 0.03 0.04 0.04 0.04 0.03 0.04 0.05 0.06 0.06
0.01 0.01 0.01 0.00 0.00 0.00 0.00 0.00 0.00 0.00 0.00 0.00 0.00 0.00 0.00 0.00 0.00 0.00 0.01 0.01 0.01 0.00 0.00 0.00 0.00 0.01 0.01 0.01 0.01 0.01 0.01 0.01 0.02 0.03 0.04 0.03 0.03 0.04 0.04 0.04 0.04 0.04 0.05 0.06
0.01 0.00 0.00 0.00 0.00 0.00 0.00 0.00 0.01 0.01 0.01 0.00 0.00 0.00 0.00 0.00 0.00 0.01 0.01 0.01 0.01 0.01 0.01 0.00 0.00 0.01 0.01 0.01 0.01 0.01 0.01 0.02 0.02 0.02 0.03 0.03 0.04 0.04 0.05 0.05 0.04 0.04 0.05 0.06
0.01 0.00 0.00 0.00 0.00 0.00 0.00 0.00 0.01 0.00 0.00 0.00 0.00 0.00 0.00 0.00 0.00 0.01 0.01 0.01 0.01 0.01 0.01 0.01 0.01 0.01 0.01 0.01 0.01 0.01 0.01 0.02 0.02 0.02 0.02 0.02 0.03 0.04 0.04 0.05 0.04 0.04 0.04 0.05
0.00 0.00 0.00 0.00 0.00 0.00 0.00 0.00 0.00 0.00 0.00 0.00 0.00 0.00 0.00 0.01 0.01 0.01 0.01 0.01 0.01 0.02 0.02 0.01 0.01 0.00 0.01 0.01 0.01 0.01 0.01 0.02 0.02 0.02 0.01 0.01 0.02 0.03 0.04 0.04 0.04 0.04 0.04 0.05
0.00 0.00 0.00 0.00 0.00 0.00 0.00 0.00 0.00 0.00 0.00 0.00 0.00 0.01 0.01 0.01 0.01 0.01 0.01 0.01 0.01 0.02 0.02 0.01 0.01 0.00 0.00 0.00 0.01 0.01 0.01 0.01 0.02 0.02 0.02 0.01 0.02 0.02 0.03 0.04 0.05 0.05 0.05 0.05
0.00 0.01 0.01 0.00 0.00 0.00 0.00 0.00 0.00 0.00 0.00 0.00 0.01 0.01 0.01 0.01 0.01 0.01 0.01 0.01 0.02 0.02 0.01 0.01 0.01 0.01 0.00 0.01 0.01 0.01 0.01 0.01 0.02 0.02 0.02 0.02 0.02 0.02 0.02 0.03 0.05 0.06 0.06 0.06
0.00 0.00 0.00 0.00 0.00 0.00 0.00 0.00 0.00 0.00 0.00 0.00 0.01 0.01 0.01 0.01 0.01 0.01 0.01 0.01 0.02 0.01 0.01 0.01 0.01 0.01 0.01 0.01 0.01 0.01 0.01 0.01 0.01 0.02 0.02 0.02 0.02 0.02 0.02 0.03 0.03 0.04 0.05 0.06
0.00 0.00 0.00 0.00 0.00 0.00 0.00 0.00 0.00 0.00 0.01 0.01 0.01 0.01 0.01 0.01 0.01 0.01 0.01 0.01 0.02 0.02 0.01 0.01 0.01 0.01 0.01 0.01 0.01 0.01 0.01 0.02 0.02 0.01 0.01 0.01 0.02 0.02 0.02 0.02 0.03 0.03 0.04 0.05
0.00 0.00 0.00 0.00 0.00 0.00 0.00 0.01 0.01 0.01 0.01 0.01 0.01 0.01 0.01 0.01 0.01 0.01 0.01 0.01 0.01 0.01 0.01 0.01 0.01 0.01 0.01 0.01 0.01 0.01 0.01 0.02 0.02 0.01 0.01 0.01 0.01 0.02 0.02 0.02 0.03 0.03 0.04 0.05
0.01 0.01 0.01 0.01 0.01 0.01 0.01 0.01 0.01 0.01 0.01 0.01 0.01 0.02 0.02 0.01 0.01 0.01 0.01 0.02 0.01 0.01 0.01 0.01 0.01 0.01 0.01 0.01 0.01 0.01 0.01 0.01 0.01 0.01 0.01 0.02 0.02 0.02 0.02 0.03 0.03 0.03 0.04 0.05
0.01 0.01 0.02 0.02 0.02 0.02 0.02 0.02 0.02 0.02 0.02 0.02 0.01 0.01 0.02 0.02 0.01 0.01 0.01 0.01 0.01 0.01 0.01 0.01 0.01 0.01 0.01 0.01 0.01 0.01 0.01 0.01 0.01 0.01 0.02 0.02 0.02 0.02 0.02 0.03 0.03 0.04 0.04 0.05
0.02 0.02 0.02 0.02 0.01 0.01 0.01 0.01 0.01 0.01 0.01 0.01 0.01 0.01 0.01 0.01 0.01 0.02 0.02 0.01 0.01 0.01 0.01 0.01 0.01 0.01 0.01 0.01 0.01 0.01 0.01 0.01 0.01 0.01 0.02 0.02 0.02 0.02 0.02 0.03 0.04 0.05 0.05 0.06
0.01 0.01 0.01 0.01 0.01 0.01 0.01 0.01 0.01 0.01 0.01 0.01 0.01 0.01 0.01 0.02 0.02 0.02 0.01 0.01 0.01 0.01 0.02 0.02 0.02 0.02 0.02 0.01 0.01 0.01 0.02 0.02 0.01 0.01 0.02 0.02 0.02 0.02 0.03 0.03 0.04 0.05 0.06 0.06
MSLP
1011.69 1012.23 1012.58 1012.71 1012.63 1012.35 1011.90 1011.33 1010.69 1010.03 1009.39 1008.81 1008.33 1007.96 1007.73 1007.64 1007.69 1007.89 1008.23 1008.70 1009.29 1009.96 1010.68 1011.42 1012.12 1012.76 1013.30 1013.71 1013.97 1014.11 1014.12 1014.02 1013.84 1013.57 1013.24 1012.84 1012.36 1011.82 1011.21 1010.53 1009.80 1009.04 1008.27 1007.52
1011.45 1011.86 1012.04 1012.00 1011.75 1011.33 1010.79 1010.19 1009.57 1008.99 1008.48 1008.07 1007.77 1007.59 1007.52 1007.56 1007.71 1007.97 1008.33 1008.79 1009.35 1009.98 1010.65 1011.34 1012.01 1012.62 1013.14 1013.55 1013.83 1013.99 1014.03 1013.96 1013.80 1013.55 1013.23 1012.82 1012.33 1011.75 1011.09 1010.36 1009.59 1008.78 1007.98 1007.21
1010.97 1011.22 1011.23 1011.02 1010.61 1010.07 1009.46 1008.84 1008.27 1007.79 1007.43 1007.21 1007.12 1007.14 1007.27 1007.47 1007.76 1008.10 1008.52 1008.99 1009.52 1010.11 1010.72 1011.35 1011.95 1012.51 1013.00 1013.39 1013.67 1013.84 1013.91 1013.87 1013.74 1013.52 1013.21 1012.80 1012.29 1011.69 1011.00 1010.23 1009.41 1008.57 1007.74 1006.95
1010.21 1010.31 1010.16 1009.80 1009.27 1008.65 1008.00 1007.40 1006.90 1006.54 1006.35 1006.32 1006.44 1006.68 1007.01 1007.41 1007.84 1008.29 1008.77 1009.27 1009.79 1010.33 1010.89 1011.44 1011.97 1012.46 1012.90 1013.25 1013.52 1013.69 1013.77 1013.75 1013.65 1013.45 1013.15 1012.75 1012.24 1011.63 1010.91 1010.12 1009.28 1008.41 1007.56 1006.74
1009.20 1009.15 1008.88 1008.42 1007.83 1007.18 1006.55 1006.01 1005.61 1005.39 1005.36 1005.53 1005.85 1006.30 1006.82 1007.38 1007.95 1008.52 1009.07 1009.60 1010.11 1010.62 1011.12 1011.60 1012.05 1012.47 1012.84 1013.15 1013.38 1013.54 1013.61 1013.60 1013.51 1013.32 1013.03 1012.64 1012.13 1011.52 1010.81 1010.01 1009.16 1008.30 1007.44 1006.61
1007.96 1007.81 1007.48 1006.99 1006.41 1005.80 1005.25 1004.81 1004.55 1004.48 1004.62 1004.95 1005.44 1006.05 1006.73 1007.43 1008.11 1008.77 1009.37 1009.93 1010.44 1010.92 1011.37 1011.78 1012.17 1012.52 1012.82 1013.07 1013.25 1013.38 1013.43 1013.41 1013.30 1013.11 1012.83 1012.44 1011.94 1011.34 1010.65 1009.88 1009.06 1008.21 1007.37 1006.55
1006.56 1006.37 1006.04 1005.60 1005.11 1004.62 1004.21 1003.93 1003.82 1003.91 1004.20 1004.67 1005.29 1006.01 1006.78 1007.56 1008.32 1009.02 1009.66 1010.23 1010.73 1011.18 1011.58 1011.94 1012.26 1012.54 1012.78 1012.97 1013.10 1013.18 1013.19 1013.14 1013.01 1012.81 1012.52 1012.13 1011.65 1011.08 1010.43 1009.70 1008.93 1008.13 1007.33 1006.53
1005.09 1004.91 1004.65 1004.34 1004.01 1003.72 1003.51 1003.42 1003.50 1003.74 1004.16 1004.73 1005.42 1006.19 1007.00 1007.80 1008.56 1009.26 1009.90 1010.45 1010.93 1011.35 1011.72 1012.03 1012.29 1012.52 1012.69 1012.82 1012.89 1012.92 1012.88 1012.79 1012.63 1012.40 1012.10 1011.72 1011.26 1010.73 1010.12 1009.46 1008.76 1008.02 1007.27 1006.52
1003.63 1003.52 1003.40 1003.27 1003.17 1003.13 1003.16 1003.30 1003.57 1003.96 1004.48 1005.11 1005.82 1006.59 1007.36 1008.12 1008.83 1009.49 1010.07 1010.58 1011.03 1011.41 1011.73 1012.00 1012.21 1012.39 1012.51 1012.58 1012.60 1012.57 1012.48 1012.34 1012.15 1011.90 1011.58 1011.21 1010.77 1010.28 1009.74 1009.15 1008.52 1007.86 1007.17 1006.46
1002.28 1002.30 1002.36 1002.47 1002.64 1002.86 1003.16 1003.53 1003.98 1004.51 1005.11 1005.76 1006.45 1007.15 1007.84 1008.50 1009.12 1009.68 1010.18 1010.62 1011.01 1011.33 1011.61 1011.83 1012.00 1012.13 1012.21 1012.23 1012.20 1012.12 1011.99 1011.81 1011.59 1011.31 1010.99 1010.63 1010.22 1009.77 1009.29 1008.77 1008.21 1007.62 1006.99 1006.31
1001.17 1001.34 1001.61 1001.97 1002.41 1002.91 1003.46 1004.05 1004.67 1005.30 1005.94 1006.59 1007.21 1007.82 1008.39 1008.91 1009.40 1009.84 1010.23 1010.58 1010.88 1011.14 1011.36 1011.54 1011.67 1011.75 1011.78 1011.77 1011.70 1011.58 1011.42 1011.21 1010.97 1010.69 1010.38 1010.03 1009.65 1009.25 1008.81 1008.35 1007.84 1007.30 1006.71 1006.06
1000.41 1000.74 1001.22 1001.81 1002.49 1003.23 1004.00 1004.77 1005.52 1006.23 1006.89 1007.49 1008.04 1008.52 1008.96 1009.34 1009.67 1009.98 1010.24 1010.48 1010.69 1010.87 1011.02 1011.14 1011.22 1011.26 1011.26 1011.21 1011.11 1010.97 1010.80 1010.59 1010.34 1010.07 1009.78 1009.46 1009.11 1008.75 1008.35 1007.92 1007.45 1006.93 1006.35 1005.70
1000.08 1000.57 1001.21 1001.99 1002.87 1003.79 1004.72 1005.62 1006.45 1007.20 1007.85 1008.40 1008.85 1009.21 1009.50 1009.74 1009.93 1010.09 1010.23 1010.35 1010.47 1010.56 1010.64 1010.69 1010.72 1010.72 1010.68 1010.60 1010.48 1010.34 1010.16 1009.96 1009.74 1009.50 1009.24 1008.95 1008.65 1008.31 1007.95 1007.53 1007.07 1006.55 1005.96 1005.28
1000.25 1000.85 1001.62 1002.52 1003.52 1004.55 1005.57 1006.53 1007.39 1008.14 1008.75 1009.23 1009.59 1009.84 1010.00 1010.10 1010.16 1010.20 1010.22 1010.23 1010.24 1010.25 1010.25 1010.24 1010.21 1010.15 1010.08 1009.98 1009.85 1009.71 1009.55 1009.38 1009.20 1009.00 1008.78 1008.55 1008.28 1007.97 1007.62 1007.21 1006.74 1006.19 1005.57 1004.85
1000.92 1001.59 1002.42 1003.38 1004.41 1005.48 1006.51 1007.46 1008.30 1009.00 1009.56 1009.96 1010.22 1010.37 1010.43 1010.42 1010.37 1010.29 1010.21 1010.13 1010.05 1009.97 1009.89 1009.81 1009.72 1009.62 1009.51 1009.38 1009.26 1009.13 1009.00 1008.86 1008.72 1008.58 1008.42 1008.23 1008.00 1007.73 1007.39 1006.97 1006.48 1005.90 1005.22 1004.46
1002.03 1002.73 1003.56 1004.50 1005.50 1006.52 1007.49 1008.38 1009.15 1009.77 1010.24 1010.56 1010.74 1010.80 1010.77 1010.67 1010.54 1010.38 1010.21 1010.04 1009.88 1009.73 1009.58 1009.43 1009.28 1009.14 1009.00 1008.86 1008.73 1008.61 1008.51 1008.42 1008.33 1008.23 1008.12 1007.98 1007.79 1007.54 1007.21 1006.79 1006.27 1005.66 1004.95 1004.15
1003.50 1004.16 1004.94 1005.81 1006.71 1007.62 1008.48 1009.25 1009.91 1010.43 1010.80 1011.03 1011.13 1011.12 1011.02 1010.86 1010.65 1010.43 1010.20 1009.97 1009.74 1009.53 1009.31 1009.11 1008.92 1008.73 1008.56 1008.41 1008.28 1008.18 1008.10 1008.04 1007.99 1007.93 1007.87 1007.76 1007.60 1007.37 1007.04 1006.62 1006.10 1005.47 1004.74 1003.93
1005.16 1005.77 1006.45 1007.19 1007.95 1008.71 1009.42 1010.04 1010.56 1010.96 1011.23 1011.37 1011.40 1011.32 1011.17 1010.96 1010.71 1010.44 1010.16 1009.88 1009.61 1009.34 1009.08 1008.84 1008.60 1008.39 1008.20 1008.04 1007.91 1007.81 1007.74 1007.70 1007.67 1007.65 1007.60 1007.52 1007.37 1007.15 1006.84 1006.43 1005.91 1005.29 1004.57 1003.79
1006.87 1007.38 1007.94 1008.53 1009.13 1009.71 1010.25 1010.72 1011.09 1011.37 1011.53 1011.59 1011.54 1011.41 1011.21 1010.96 1010.68 1010.37 1010.06 1009.74 1009.43 1009.13 1008.84 1008.57 1008.32 1008.09 1007.89 1007.72 1007.59 1007.49 1007.43 1007.39 1007.36 1007.34 1007.29 1007.21 1007.07 1006.85 1006.55 1006.15 1005.66 1005.07 1004.41 1003.69
1008.46 1008.87 1009.30 1009.73 1010.16 1010.57 1010.94 1011.25 1011.49 1011.65 1011.71 1011.69 1011.58 1011.40 1011.16 1010.87 1010.55 1010.21 1009.87 1009.52 1009.18 1008.86 1008.55 1008.26 1008.00 1007.77 1007.57 1007.40 1007.28 1007.18 1007.11 1007.06 1007.02 1006.98 1006.91 1006.81 1006.66 1006.44 1006.15 1005.77 1005.33 1004.81 1004.22 1003.60
1009.84 1010.14 1010.43 1010.71 1010.99 1011.24 1011.46 1011.64 1011.76 1011.81 1011.79 1011.69 1011.52 1011.29 1011.00 1010.68 1010.32 1009.94 1009.56 1009.18 1008.82 1008.47 1008.15 1007.86 1007.61 1007.38 1007.19 1007.04 1006.92 1006.82 1006.75 1006.69 1006.62 1006.55 1006.46 1006.33 1006.16 1005.93 1005.65 1005.32 1004.93 1004.49 1004.02 1003.52
1010.95 1011.14 1011.31 1011.46 1011.60 1011.72 1011.82 1011.89 1011.91 1011.88 1011.78 1011.63 1011.40 1011.11 1010.77 1010.39 1009.98 1009.55 1009.12 1008.70 1008.30 1007.94 1007.61 1007.31 1007.07 1006.86 1006.70 1006.57 1006.47 1006.38 1006.31 1006.24 1006.16 1006.06 1005.94 1005.79 1005.60 1005.38 1005.12 1004.82 1004.50 1004.16 1003.81 1003.47
1011.79 1011.87 1011.93 1011.98 1012.02 1012.04 1012.05 1012.04 1011.98 1011.88 1011.73 1011.51 1011.22 1010.87 1010.47 1010.02 1009.54 1009.04 1008.55 1008.07 1007.63 1007.23 1006.88 1006.58 1006.35 1006.16 1006.03 1005.94 1005.87 1005.81 1005.76 1005.70 1005.62 1005.52 1005.39 1005.23 1005.05 1004.83 1004.60 1004.36 1004.12 1003.89 1003.67 1003.47
1012.38 1012.38 1012.36 1012.32 1012.28 1012.24 1012.19 1012.11 1012.01 1011.85 1011.64 1011.37 1011.02 1010.60 1010.12 1009.59 1009.02 1008.44 1007.85 1007.30 1006.79 1006.34 1005.96 1005.66 1005.43 1005.27 1005.17 1005.12 1005.10 1005.10 1005.09 1005.07 1005.03 1004.95 1004.84 1004.71 1004.54 1004.37 1004.19 1004.02 1003.86 1003.73 1003.64 1003.59
1012.78 1012.71 1012.63 1012.54 1012.46 1012.37 1012.28 1012.16 1012.02 1011.82 1011.56 1011.22 1010.81 1010.31 1009.74 1009.11 1008.44 1007.75 1007.07 1006.42 1005.83 1005.32 1004.89 1004.56 1004.34 1004.20 1004.14 1004.14 1004.18 1004.25 1004.32 1004.37 1004.39 1004.38 1004.33 1004.25 1004.15 1004.04 1003.93 1003.84 1003.78 1003.76 1003.79 1003.87
1013.06 1012.94 1012.82 1012.70 1012.59 1012.48 1012.36 1012.21 1012.03 1011.79 1011.48 1011.09 1010.60 1010.02 1009.35 1008.62 1007.83 1007.03 1006.24 1005.49 1004.80 1004.21 1003.74 1003.38 1003.14 1003.02 1002.99 1003.06 1003.17 1003.32 1003.48 1003.63 1003.76 1003.85 1003.90 1003.91 1003.91 1003.89 1003.88 1003.88 1003.92 1004.01 1004.14 1004.33
1013.26 1013.12 1012.98 1012.84 1012.72 1012.59 1012.44 1012.28 1012.06 1011.78 1011.41 1010.95 1010.39 1009.72 1008.96 1008.12 1007.23 1006.32 1005.42 1004.57 1003.80 1003.13 1002.60 1002.20 1001.95 1001.84 1001.86 1001.98 1002.17 1002.42 1002.68 1002.95 1003.19 1003.41 1003.58 1003.73 1003.84 1003.94 1004.04 1004.15 1004.30 1004.48 1004.71 1004.99
Thickness
5535 5542 5537 5534 5532 5530 5523 5525 5525 5543 5549 5556 5555 5552 5551 5550 5548 5546 5543 5540 5537 5533 5531 5530 5528 5526 5524 5521 5518 5515 5510 5505 5501 5498 5495 5492 5490 5489 5489 5489 5489 5490 5489 5490
5522 5534 5534 5531 5535 5533 5529 5530 5532 5536 5543 5554 5551 5548 5546 5544 5543 5539 5537 5535 5532 5530 5527 5525 5523 5521 5519 5516 5514 5510 5505 5500 5496 5493 5490 5487 5485 5483 5482 5482 5482 5483 5482 5482
5511 5524 5521 5520 5540 5536 5533 5535 5532 5529 5541 5546 5543 5541 5538 5538 5536 5533 5530 5528 5526 5523 5520 5519 5517 5515 5512 5510 5508 5503 5499 5495 5491 5488 5484 5482 5481 5478 5476 5475 5475 5475 5475 5476
5499 5503 5498 5540 5550 5546 5539 5539 5538 5538 5541 5541 5538 5536 5535 5533 5529 5526 5524 5521 5519 5516 5515 5513 5511 5509 5507 5505 5501 5497 5493 5489 5485 5482 5478 5476 5474 5472 5471 5470 5469 5469 5469 5469
5491 5494 5510 5535 5541 5538 5530 5531 5539 5536 5537 5536 5532 5528 5528 5528 5525 5520 5517 5515 5512 5510 5508 5506 5504 5502 5500 5497 5494 5490 5486 5482 5479 5476 5472 5470 5468 5467 5466 5464 5463 5462 5462 5462
5485 5488 5502 5533 5535 5535 5528 5519 5535 5533 5530 5527 5521 5509 5516 5520 5518 5514 5511 5508 5505 5503 5502 5499 5496 5494 5492 5489 5486 5482 5479 5476 5473 5469 5466 5464 5462 5461 5460 5458 5457 5456 5457 5456
5480 5485 5504 5526 5524 5522 5510 5517 5531 5528 5524 5519 5512 5509 5511 5511 5508 5505 5503 5501 5499 5496 5493 5491 5489 5486 5483 5480 5477 5474 5472 5469 5466 5462 5459 5457 5456 5455 5453 5452 5451 5450 5450 5450
5476 5479 5498 5517 5511 5508 5513 5522 5523 5520 5516 5512 5509 5507 5505 5502 5500 5497 5494 5493 5491 5487 5484 5482 5481 5478 5474 5471 5469 5467 5464 5461 5459 5456 5453 5452 5449 5448 5447 5445 5444 5443 5444 5445
5488 5501 5515 5512 5510 5512 5514 5512 5512 5508 5507 5503 5499 5496 5495 5493 5490 5488 5486 5484 5482 5479 5476 5474 5472 5469 5466 5463 5461 5459 5456 5453 5450 5449 5447 5445 5443 5442 5441 5439 5438 5438 5438 5439
5485 5499 5507 5505 5506 5505 5504 5502 5501 5499 5496 5493 5489 5486 5484 5483 5481 5479 5477 5475 5473 5470 5467 5465 5463 5461 5458 5455 5452 5450 5447 5444 5442 5440 5439 5438 5436 5435 5434 5432 5431 5432 5432 5432
5473 5489 5493 5496 5495 5495 5493 5491 5489 5487 5485 5482 5479 5476 5474 5472 5471 5469 5467 5465 5463 5461 5458 5456 5454 5452 5449 5446 5443 5440 5438 5436 5434 5432 5431 5430 5429 5427 5426 5426 5424 5425 5426 5426
5470 5480 5479 5482 5483 5484 5481 5479 5477 5475 5473 5471 5468 5466 5464 5462 5460 5459 5457 5455 5453 5452 5450 5448 5446 5443 5440 5437 5434 5431 5429 5427 5424 5423 5422 5421 5421 5421 5421 5420 5421 5421 5422 5422
5468 5471 5470 5472 5473 5473 5470 5468 5467 5465 5462 5459 5458 5456 5454 5452 5450 5449 5447 5445 5443 5442 5440 5438 5436 5433 5431 5428 5425 5422 5419 5417 5415 5414 5413 5413 5412 5413 5414 5415 5415 5416 5416 5417
5459 5459 5458 5459 5459 5460 5459 5458 5456 5453 5451 5449 5447 5445 5442 5441 5439 5438 5436 5434 5433 5432 5430 5428 5426 5423 5421 5418 5415 5412 5410 5409 5407 5405 5404 5404 5404 5404 5404 5406 5407 5409 5410 5412
5448 5448 5448 5448 5447 5447 5446 5444 5442 5439 5438 5437 5435 5433 5431 5429 5427 5426 5425 5424 5423 5421 5419 5417 5415 5413 5411 5408 5405 5402 5401 5399 5398 5397 5396 5396 5396 5396 5396 5397 5398 5400 5402 5404
5433 5434 5435 5435 5435 5434 5433 5431 5429 5427 5425 5424 5422 5421 5419 5418 5416 5415 5413 5412 5411 5409 5408 5406 5404 5402 5400 5397 5395 5393 5391 5391 5390 5388 5387 5387 5386 5386 5387 5387 5389 5390 5392 5394
5418 5420 5421 5422 5422 5422 5420 5419 5418 5416 5413 5411 5409 5408 5407 5405 5404 5403 5402 5401 5400 5398 5396 5394 5392 5391 5389 5387 5385 5383 5381 5380 5380 5379 5377 5376 5376 5376 5377 5377 5379 5381 5382 5385
5409 5411 5411 5411 5410 5408 5407 5406 5405 5403 5400 5399 5398 5396 5395 5393 5392 5391 5389 5388 5387 5386 5384 5382 5381 5379 5378 5376 5375 5373 5371 5370 5369 5368 5367 5367 5366 5367 5367 5368 5369 5371 5373 5376
5396 5397 5398 5398 5398 5396 5394 5393 5391 5390 5388 5387 5385 5383 5382 5381 5379 5378 5377 5376 5374 5373 5373 5371 5371 5369 5367 5366 5365 5363 5362 5361 5360 5359 5359 5360 5359 5359 5359 5360 5361 5362 5364 5368
5381 5382 5383 5382 5382 5382 5380 5379 5378 5376 5375 5374 5372 5370 5369 5368 5367 5366 5364 5363 5362 5361 5361 5361 5359 5358 5356 5355 5355 5354 5353 5352 5352 5351 5351 5351 5351 5351 5352 5353 5354 5355 5357 5360
5366 5367 5368 5367 5366 5366 5365 5364 5363 5362 5361 5360 5358 5357 5356 5355 5354 5353 5352 5352 5352 5351 5351 5351 5349 5347 5347 5346 5346 5345 5344 5344 5343 5343 5343 5343 5343 5344 5345 5346 5347 5349 5351 5354
5352 5352 5352 5351 5351 5349 5348 5348 5348 5348 5347 5346 5345 5344 5343 5343 5342 5342 5341 5341 5342 5342 5341 5340 5339 5339 5339 5339 5338 5337 5336 5336 5336 5336 5336 5336 5336 5337 5338 5340 5341 5343 5345 5348
5338 5337 5337 5336 5335 5334 5333 5333 5333 5333 5333 5332 5332 5332 5331 5331 5331 5330 5331 5332 5331 5332 5332 5331 5331 5332 5332 5331 5330 5329 5329 5328 5328 5328 5329 5329 5330 5331 5332 5334 5336 5338 5340 5343
5324 5323 5323 5322 5321 5321 5320 5320 5321 5321 5320 5321 5321 5321 5321 5320 5321 5321 5321 5323 5323 5323 5323 5323 5324 5325 5325 5324 5323 5322 5322 5322 5321 5321 5322 5323 5324 5326 5327 5329 5331 5333 5335 5338
5310 5309 5309 5309 5309 5308 5308 5309 5309 5309 5310 5309 5310 5311 5311 5311 5311 5311 5311 5312 5314 5314 5314 5315 5316 5317 5316 5316 5315 5315 5315 5315 5315 5316 5317 5318 5319 5321 5323 5325 5327 5330 5332 5334
5298 5297 5297 5296 5296 5297 5297 5298 5298 5298 5299 5300 5300 5301 5301 5301 5301 5302 5303 5304 5304 5306 5306 5307 5307 5308 5308 5308 5308 5308 5308 5308 5309 5310 5311 5313 5315 5317 5320 5322 5324 5326 5329 5331
5285 5285 5285 5286 5286 5286 5286 5287 5288 5288 5289 5289 5290 5291 5291 5292 5293 5293 5294 5295 5296 5297 5298 5299 5300 5300 5301 5301 5302 5302 5303 5304 5304 5306 5308 5309 5311 5314 5316 5319 5321 5324 5326 5329